Location: Sungai Bunut
(2.6333°N, 113.7333°E)
Time: 17:57:54
(UTC+00:00)

Transit 4A - Pass Details

Date: 05 December 2023
Orbit: 870 x 973 km, 66.8° (Epoch: 04 March)

Event Time Altitude Azimuth Distance (km) Brightness Sun altitude
Rises 22:05:50 0° 355° (N) 3,492 10.6 -3.3°
Reaches altitude 10° 22:08:31 10° 3° (N) 2,541 10.0 -2.7°
Maximum altitude 22:13:54 38° 70° (ENE) 1,314 9.3 -1.4°
Drops below altitude 10° 22:19:14 10° 136° (SE) 2,514 11.5 -0.2°
Sets 22:21:51 0° 144° (SE) 3,450 12.0 0.4°
